.
WxDataArchive / Data Records for 2009-09-09
2009-09-08 September 2009 2009-09-10

Data Records for Wednesday, 09 September 2009

Time	Temp	Chill	HIndex	Humid	Dewpt	 Wind 	HiWind	WindDir	Rain 	Barom 
-----	----	-----	------	-----	-----	------	------	-------	-----	----- 
00:00	64.8	64.8	64.8	96	63.6	0	2	90	0.00	30.057 
00:05	65.0	65.0	65.0	96	63.8	0	1	90	0.00	30.057 
00:10	65.2	65.2	65.2	96	64.0	1	2	90	0.00	30.057 
00:15	65.2	65.2	65.2	96	64.0	1	3	90	0.00	30.055 
00:20	65.2	65.2	65.2	96	64.0	1	3	90	0.00	30.055 
00:25	65.2	65.2	65.2	96	64.0	1	3	90	0.00	30.055 
00:30	65.2	65.2	65.2	96	64.0	0	2	90	0.00	30.059 
00:35	65.2	65.2	65.2	96	64.0	1	2	90	0.00	30.059 
00:40	65.2	65.2	65.2	96	64.0	0	2	90	0.00	30.059 
00:45	65.2	65.2	65.2	96	64.0	0	2	90	0.00	30.062 
00:50	65.2	65.2	65.2	96	64.0	0	1	90	0.00	30.062 
00:55	65.3	65.3	65.3	96	64.1	0	1	90	0.00	30.062 
01:00	65.3	65.3	65.3	96	64.1	0	1	90	0.00	30.058 
01:05	65.5	65.5	65.5	96	64.3	0	3	90	0.00	30.058 
01:10	65.6	65.6	65.6	96	64.4	0	3	90	0.00	30.058 
01:15	65.6	65.6	65.6	96	64.4	0	2	90	0.00	30.055 
01:20	65.6	65.6	65.6	96	64.4	0	2	90	0.00	30.055 
01:25	65.6	65.6	65.6	96	64.4	1	3	90	0.00	30.055 
01:30	65.8	65.8	65.8	96	64.6	1	4	90	0.00	30.059 
01:35	65.8	65.8	65.8	96	64.6	1	3	90	0.00	30.059 
01:40	65.8	65.8	65.8	96	64.6	1	4	90	0.00	30.059 
01:45	65.8	65.8	65.8	96	64.6	0	2	90	0.00	30.060 
01:50	65.8	65.8	65.8	96	64.6	1	3	90	0.00	30.060 
01:55	65.8	65.8	65.8	96	64.6	0	1	90	0.00	30.060 
02:00	65.8	65.8	65.8	96	64.6	1	3	90	0.00	30.067 
02:05	65.8	65.8	65.8	96	64.6	2	6	112	0.00	30.067 
02:10	65.8	65.8	65.8	96	64.6	2	6	90	0.00	30.067 
02:15	65.8	65.8	65.8	96	64.6	2	3	90	0.00	30.066 
02:20	65.8	65.8	65.8	96	64.6	1	3	90	0.00	30.066 
02:25	65.8	65.8	65.8	96	64.6	1	3	90	0.00	30.066 
02:30	65.8	65.8	65.8	96	64.6	1	3	90	0.00	30.067 
02:35	65.8	65.8	65.8	96	64.6	1	4	90	0.00	30.067 
02:40	65.8	65.8	65.8	96	64.6	1	2	90	0.00	30.067 
02:45	65.8	65.8	65.8	96	64.6	1	3	90	0.00	30.068 
02:50	66.0	66.0	66.0	95	64.5	0	3	90	0.00	30.068 
02:55	66.0	66.0	66.0	95	64.5	1	4	90	0.00	30.068 
03:00	66.0	66.0	66.0	95	64.5	0	1	90	0.00	30.067 
03:05	65.8	65.8	65.8	95	64.3	1	3	90	0.00	30.067 
03:10	65.8	65.8	65.8	95	64.3	1	5	90	0.00	30.067 
03:15	65.8	65.8	65.8	95	64.3	0	2	90	0.00	30.070 
03:20	65.8	65.8	65.8	95	64.3	0	2	90	0.00	30.070 
03:25	65.8	65.8	65.8	95	64.3	0	2	90	0.00	30.070 
03:30	65.8	65.8	65.8	95	64.3	0	1	90	0.00	30.073 
03:35	65.8	65.8	65.8	95	64.3	1	2	90	0.00	30.073 
03:40	65.6	65.6	65.6	95	64.1	0	3	90	0.00	30.073 
03:45	65.6	65.6	65.6	95	64.1	1	5	90	0.00	30.080 
03:50	65.6	65.6	65.6	95	64.1	1	3	112	0.00	30.080 
03:55	65.6	65.6	65.6	95	64.1	0	2	112	0.00	30.080 
04:00	65.6	65.6	65.6	95	64.1	1	3	90	0.00	30.083 
04:05	65.6	65.6	65.6	95	64.1	0	1	90	0.00	30.083 
04:10	65.6	65.6	65.6	95	64.1	0	0	---	0.00	30.083 
04:15	65.6	65.6	65.6	95	64.1	0	0	---	0.00	30.082 
04:20	65.6	65.6	65.6	95	64.1	0	1	90	0.00	30.082 
04:25	65.6	65.6	65.6	95	64.1	0	0	---	0.00	30.082 
04:30	65.8	65.8	65.8	95	64.3	0	0	---	0.00	30.082 
04:35	65.8	65.8	65.8	95	64.3	0	0	---	0.00	30.082 
04:40	65.8	65.8	65.8	95	64.3	0	0	---	0.00	30.082 
04:45	65.8	65.8	65.8	95	64.3	0	0	---	0.00	30.082 
04:50	65.8	65.8	65.8	95	64.3	0	0	---	0.00	30.082 
04:55	65.8	65.8	65.8	95	64.3	0	0	---	0.00	30.082 
05:00	65.8	65.8	65.8	95	64.3	0	0	---	0.00	30.083 
05:05	65.8	65.8	65.8	95	64.3	0	0	---	0.00	30.083 
05:10	65.8	65.8	65.8	95	64.3	0	0	---	0.00	30.083 
05:15	65.8	65.8	65.8	95	64.3	0	0	---	0.00	30.087 
05:20	65.8	65.8	65.8	95	64.3	0	0	---	0.00	30.087 
05:25	65.8	65.8	65.8	95	64.3	0	2	90	0.00	30.087 
05:30	65.8	65.8	65.8	95	64.3	0	1	90	0.00	30.091 
05:35	65.8	65.8	65.8	95	64.3	0	1	90	0.00	30.091 
05:40	65.8	65.8	65.8	95	64.3	0	0	---	0.00	30.091 
05:45	65.8	65.8	65.8	95	64.3	0	0	---	0.00	30.091 
05:50	65.8	65.8	65.8	95	64.3	0	1	90	0.00	30.091 
05:55	65.8	65.8	65.8	95	64.3	0	0	---	0.00	30.091 
06:00	65.6	65.6	65.6	95	64.1	0	0	---	0.00	30.093 
06:05	65.6	65.6	65.6	95	64.1	0	0	---	0.00	30.093 
06:10	65.6	65.6	65.6	95	64.1	0	0	---	0.00	30.093 
06:15	65.6	65.6	65.6	95	64.1	0	1	90	0.00	30.097 
06:20	65.6	65.6	65.6	95	64.1	0	1	90	0.00	30.097 
06:25	65.6	65.6	65.6	95	64.1	0	2	90	0.00	30.097 
06:30	65.5	65.5	65.5	95	64.0	0	1	90	0.00	30.099 
06:35	65.5	65.5	65.5	95	64.0	0	1	90	0.00	30.099 
06:40	65.3	65.3	65.3	95	63.8	0	0	---	0.00	30.099 
06:45	65.2	65.2	65.2	95	63.7	0	1	90	0.00	30.102 
06:50	65.0	65.0	65.0	95	63.5	0	1	90	0.00	30.102 
06:55	65.0	65.0	65.0	95	63.5	0	1	90	0.00	30.102 
07:00	64.8	64.8	64.8	95	63.3	0	1	90	0.00	30.101 
07:05	64.7	64.7	64.7	95	63.2	0	1	90	0.00	30.101 
07:10	64.7	64.7	64.7	95	63.2	0	2	90	0.00	30.101 
07:15	64.5	64.5	64.5	96	63.3	0	1	90	0.00	30.102 
07:20	64.5	64.5	64.5	96	63.3	0	1	90	0.00	30.102 
07:25	64.3	64.3	64.3	96	63.1	0	0	---	0.00	30.102 
07:30	64.2	64.2	64.2	96	63.0	0	1	90	0.00	30.103 
07:35	64.2	64.2	64.2	96	63.0	0	1	90	0.00	30.103 
07:40	64.2	64.2	64.2	96	63.0	0	1	90	0.00	30.103 
07:45	64.2	64.2	64.2	96	63.0	0	1	90	0.00	30.106 
07:50	64.3	64.3	64.3	96	63.1	0	2	90	0.00	30.106 
07:55	64.3	64.3	64.3	96	63.1	0	1	90	0.00	30.106 
08:00	64.3	64.3	64.3	96	63.1	0	2	90	0.00	30.111 
08:05	64.5	64.5	64.5	96	63.3	0	2	90	0.00	30.111 
08:10	64.5	64.5	64.5	96	63.3	0	3	90	0.00	30.111 
08:15	64.7	64.7	64.7	96	63.5	0	2	90	0.00	30.117 
08:20	64.7	64.7	64.7	96	63.5	0	0	---	0.00	30.117 
08:25	64.8	64.8	64.8	96	63.6	0	3	90	0.00	30.117 
08:30	64.8	64.8	64.8	96	63.6	1	2	90	0.00	30.118 
08:35	64.8	64.8	64.8	96	63.6	1	2	90	0.00	30.118 
08:40	65.0	65.0	65.0	96	63.8	2	3	90	0.00	30.118 
08:45	65.0	65.0	65.0	96	63.8	0	2	90	0.00	30.117 
08:50	65.0	65.0	65.0	96	63.8	1	3	90	0.00	30.117 
08:55	65.0	65.0	65.0	96	63.8	1	4	135	0.00	30.117 
09:00	65.2	65.2	65.2	96	64.0	0	2	135	0.00	30.123 
09:05	65.2	65.2	65.2	96	64.0	1	3	90	0.00	30.123 
09:10	65.2	65.2	65.2	96	64.0	0	2	90	0.00	30.123 
09:15	65.2	65.2	65.2	96	64.0	1	3	90	0.00	30.129 
09:20	65.2	65.2	65.2	96	64.0	1	5	90	0.00	30.129 
09:25	65.0	65.0	65.0	96	63.8	1	3	90	0.00	30.129 
09:30	65.2	65.2	65.2	96	64.0	0	1	90	0.00	30.131 
09:35	65.2	65.2	65.2	96	64.0	1	2	90	0.00	30.131 
09:40	65.2	65.2	65.2	96	64.0	0	2	90	0.00	30.131 
09:45	65.3	65.3	65.3	96	64.1	0	1	90	0.00	30.135 
09:50	65.3	65.3	65.3	96	64.1	1	2	90	0.00	30.135 
09:55	65.3	65.3	65.3	96	64.1	1	3	90	0.00	30.135 
10:00	65.5	65.5	65.5	96	64.3	0	3	90	0.00	30.135 
10:05	65.6	65.6	65.6	96	64.4	0	2	90	0.00	30.135 
10:10	65.6	65.6	65.6	96	64.4	1	4	90	0.00	30.135 
10:15	65.8	65.8	65.8	96	64.6	2	4	90	0.00	30.136 
10:20	65.8	65.8	65.8	96	64.6	1	5	112	0.00	30.136 
10:25	66.0	66.0	66.0	96	64.8	0	2	90	0.00	30.136 
10:30	66.1	66.1	66.1	96	64.9	1	5	90	0.00	30.134 
10:35	66.0	66.0	66.0	96	64.8	2	6	112	0.00	30.134 
10:40	66.3	66.3	66.3	96	65.1	1	2	112	0.00	30.134 
10:45	66.4	66.4	66.4	96	65.2	1	5	112	0.00	30.138 
10:50	66.6	66.6	66.6	96	65.4	1	2	112	0.00	30.138 
10:55	66.8	66.8	66.8	96	65.6	1	4	68	0.00	30.138 
11:00	67.1	67.1	67.1	96	65.9	1	4	90	0.00	30.135 
11:05	67.1	67.1	67.1	95	65.6	1	3	90	0.00	30.135 
11:10	67.3	67.3	67.3	95	65.8	1	3	90	0.00	30.135 
11:15	67.4	67.4	67.4	94	65.6	2	5	90	0.00	30.136 
11:20	67.6	67.6	67.6	93	65.5	2	5	90	0.00	30.136 
11:25	67.9	67.9	67.9	93	65.8	2	5	112	0.00	30.136 
11:30	68.3	68.3	68.3	92	65.9	1	5	112	0.00	30.139 
11:35	68.6	68.6	68.6	92	66.2	2	4	112	0.00	30.139 
11:40	68.9	68.9	68.9	90	65.8	1	6	112	0.00	30.139 
11:45	69.1	69.1	69.1	89	65.7	2	5	90	0.00	30.141 
11:50	69.4	69.4	69.4	89	66.0	1	5	90	0.00	30.141 
11:55	69.6	69.6	69.6	88	65.9	2	5	112	0.00	30.141 
12:00	69.9	69.9	69.9	88	66.2	1	3	90	0.00	30.140 
12:05	70.6	70.6	70.6	86	66.2	2	5	90	0.00	30.140 
12:10	71.3	71.3	71.3	84	66.2	2	4	90	0.00	30.140 
12:15	72.0	72.0	72.0	83	66.5	1	4	90	0.00	30.135 
12:20	72.5	72.5	72.5	82	66.7	1	4	112	0.00	30.135 
12:25	73.0	73.0	73.0	80	66.5	1	3	112	0.00	30.135 
12:30	73.5	73.5	73.5	80	66.9	1	4	90	0.00	30.135 
12:35	73.3	73.3	73.3	78	66.0	2	4	112	0.00	30.135 
12:40	73.2	73.2	73.2	79	66.3	2	6	112	0.00	30.135 
12:45	73.3	73.3	73.3	79	66.4	2	6	90	0.00	30.136 
12:50	73.2	73.2	73.2	78	65.9	2	7	90	0.00	30.136 
12:55	73.2	73.2	73.2	79	66.3	1	3	90	0.00	30.136 
13:00	73.5	73.5	73.5	80	66.9	1	4	90	0.00	30.137 
13:05	73.9	73.9	73.9	77	66.2	2	7	90	0.00	30.137 
13:10	74.2	74.2	74.2	78	66.9	1	4	90	0.00	30.137 
13:15	74.2	74.2	74.2	75	65.8	2	5	112	0.00	30.134 
13:20	74.0	74.0	74.0	75	65.6	2	5	112	0.00	30.134 
13:25	73.9	73.9	73.9	74	65.1	3	6	68	0.00	30.134 
13:30	74.4	74.4	74.4	74	65.6	2	5	90	0.00	30.130 
13:35	75.3	75.3	76.8	72	65.6	2	6	90	0.00	30.130 
13:40	76.1	76.1	77.8	70	65.6	2	5	90	0.00	30.130 
13:45	76.8	76.8	78.6	68	65.4	1	4	112	0.00	30.126 
13:50	77.4	77.4	79.2	69	66.4	2	9	112	0.00	30.126 
13:55	77.7	77.7	79.6	70	67.1	2	4	112	0.00	30.126 
14:00	77.6	77.6	79.5	69	66.6	2	7	90	0.00	30.123 
14:05	77.6	77.6	79.5	68	66.2	1	4	90	0.00	30.123 
14:10	77.6	77.6	79.4	66	65.3	1	2	135	0.00	30.123 
14:15	77.6	77.6	79.5	69	66.6	1	2	135	0.00	30.122 
14:20	77.7	77.7	79.6	68	66.3	1	4	90	0.00	30.122 
14:25	77.4	77.4	79.3	70	66.8	0	2	90	0.00	30.122 
14:30	77.6	77.6	79.5	70	67.0	0	2	90	0.00	30.123 
14:35	77.7	77.7	79.6	67	65.8	2	5	90	0.00	30.123 
14:40	77.0	77.0	78.8	68	65.6	3	6	90	0.00	30.123 
14:45	77.0	77.0	78.8	70	66.4	1	4	90	0.00	30.118 
14:50	77.4	77.4	79.2	66	65.1	2	5	90	0.00	30.118 
14:55	77.6	77.6	79.4	66	65.3	1	3	112	0.00	30.118 
15:00	77.2	77.2	79.0	68	65.8	1	4	112	0.00	30.112 
15:05	76.8	76.8	78.6	67	65.0	2	6	90	0.00	30.112 
15:10	76.5	76.5	78.3	65	63.8	1	4	112	0.00	30.112 
15:15	76.5	76.5	78.3	66	64.3	1	6	90	0.00	30.112 
15:20	76.7	76.7	78.5	65	64.0	2	4	90	0.00	30.112 
15:25	76.5	76.5	78.3	68	65.1	1	3	90	0.00	30.112 
15:30	76.8	76.8	78.6	67	65.0	1	4	112	0.00	30.110 
15:35	77.6	77.6	79.4	66	65.3	2	5	112	0.00	30.110 
15:40	77.6	77.6	79.4	65	64.9	1	5	90	0.00	30.110 
15:45	77.4	77.4	79.2	65	64.7	1	4	90	0.00	30.108 
15:50	77.0	77.0	78.8	65	64.3	2	5	90	0.00	30.108 
15:55	76.7	76.7	78.5	65	64.0	1	4	68	0.00	30.108 
16:00	76.7	76.7	78.5	67	64.9	1	3	90	0.00	30.102 
16:05	77.2	77.2	79.0	64	64.1	2	4	90	0.00	30.102 
16:10	77.9	77.9	79.7	65	65.2	2	5	68	0.00	30.102 
16:15	78.1	78.1	79.9	63	64.5	3	6	90	0.00	30.098 
16:20	78.5	78.5	80.4	65	65.7	2	5	112	0.00	30.098 
16:25	78.6	78.6	80.5	64	65.4	2	7	90	0.00	30.098 
16:30	78.6	78.6	80.3	60	63.5	2	5	90	0.00	30.097 
16:35	78.1	78.1	79.8	61	63.5	1	4	112	0.00	30.097 
16:40	77.4	77.4	79.2	62	63.3	1	4	112	0.00	30.097 
16:45	76.8	76.8	78.6	64	63.7	1	3	90	0.00	30.099 
16:50	77.2	77.2	79.0	63	63.6	1	4	112	0.00	30.099 
16:55	77.6	77.6	79.4	63	64.0	1	4	90	0.00	30.099 
17:00	78.1	78.1	79.8	61	63.5	3	10	90	0.00	30.098 
17:05	78.1	78.1	79.9	62	64.0	3	6	112	0.00	30.098 
17:10	77.9	77.9	79.6	62	63.8	2	6	112	0.00	30.098 
17:15	77.9	77.9	79.6	61	63.3	1	5	90	0.00	30.097 
17:20	77.9	77.9	79.6	61	63.3	1	4	112	0.00	30.097 
17:25	77.9	77.9	79.6	62	63.8	2	7	112	0.00	30.097 
17:30	77.9	77.9	79.6	61	63.3	3	8	90	0.00	30.096 
17:35	77.7	77.7	79.4	59	62.2	3	5	90	0.00	30.096 
17:40	77.6	77.6	79.2	58	61.6	4	10	90	0.00	30.096 
17:45	77.6	77.6	79.2	57	61.1	3	7	90	0.00	30.096 
17:50	77.4	77.4	79.1	57	61.0	3	5	90	0.00	30.096 
17:55	77.4	77.4	79.0	55	59.9	3	7	90	0.00	30.096 
18:00	77.2	77.2	78.9	57	60.8	2	4	90	0.00	30.095 
18:05	77.2	77.2	78.9	57	60.8	2	5	112	0.00	30.095 
18:10	77.2	77.2	78.9	57	60.8	2	5	112	0.00	30.095 
18:15	77.2	77.2	78.9	60	62.2	1	5	90	0.00	30.099 
18:20	77.0	77.0	78.7	57	60.6	2	5	112	0.00	30.099 
18:25	77.2	77.2	78.9	58	61.3	1	5	90	0.00	30.099 
18:30	77.2	77.2	78.9	57	60.8	1	6	90	0.00	30.105 
18:35	77.4	77.4	79.1	58	61.4	1	3	112	0.00	30.105 
18:40	77.4	77.4	79.1	57	61.0	1	3	112	0.00	30.105 
18:45	77.6	77.6	79.2	58	61.6	1	4	112	0.00	30.105 
18:50	77.6	77.6	79.3	59	62.1	0	2	90	0.00	30.105 
18:55	77.6	77.6	79.3	59	62.1	0	1	90	0.00	30.105 
19:00	77.4	77.4	79.1	59	61.9	1	2	90	0.00	30.104 
19:05	77.2	77.2	78.9	59	61.7	1	3	90	0.00	30.104 
19:10	76.8	76.8	78.6	61	62.3	0	1	90	0.00	30.104 
19:15	76.5	76.5	78.4	61	62.0	0	1	90	0.00	30.106 
19:20	76.0	76.0	78.0	62	62.0	0	1	90	0.00	30.106 
19:25	75.6	75.6	77.6	63	62.1	0	1	90	0.00	30.106 
19:30	75.3	75.3	77.4	64	62.3	0	0	---	0.00	30.105 
19:35	74.9	74.9	74.9	65	62.3	0	1	90	0.00	30.105 
19:40	74.6	74.6	74.6	65	62.0	0	1	90	0.00	30.105 
19:45	74.0	74.0	74.0	66	61.9	0	2	90	0.00	30.111 
19:50	73.7	73.7	73.7	67	62.0	0	1	90	0.00	30.111 
19:55	73.3	73.3	73.3	68	62.1	0	1	90	0.00	30.111 
20:00	73.2	73.2	73.2	68	62.0	0	1	90	0.00	30.116 
20:05	72.8	72.8	72.8	69	62.0	0	1	90	0.00	30.116 
20:10	72.5	72.5	72.5	69	61.7	0	1	90	0.00	30.116 
20:15	72.1	72.1	72.1	71	62.2	0	2	90	0.00	30.118 
20:20	72.0	72.0	72.0	71	62.1	0	2	90	0.00	30.118 
20:25	71.8	71.8	71.8	72	62.3	0	1	90	0.00	30.118 
20:30	71.6	71.6	71.6	73	62.5	0	1	90	0.00	30.125 
20:35	71.5	71.5	71.5	73	62.4	0	1	90	0.00	30.125 
20:40	71.1	71.1	71.1	74	62.4	0	2	90	0.00	30.125 
20:45	70.9	70.9	70.9	74	62.2	1	2	90	0.00	30.132 
20:50	70.9	70.9	70.9	75	62.6	1	4	90	0.00	30.132 
20:55	70.8	70.8	70.8	76	62.8	0	1	135	0.00	30.132 
21:00	70.6	70.6	70.6	76	62.7	0	3	68	0.00	30.145 
21:05	70.4	70.4	70.4	77	62.8	1	4	112	0.00	30.145 
21:10	70.3	70.3	70.3	77	62.7	1	2	112	0.00	30.145 
21:15	70.1	70.1	70.1	78	62.9	1	3	112	0.00	30.146 
21:20	69.8	69.8	69.8	79	63.0	1	3	112	0.00	30.146 
21:25	69.6	69.6	69.6	79	62.8	0	4	112	0.00	30.146 
21:30	69.4	69.4	69.4	80	63.0	0	2	112	0.00	30.150 
21:35	69.3	69.3	69.3	81	63.2	0	1	112	0.00	30.150 
21:40	68.9	68.9	68.9	81	62.8	0	0	---	0.00	30.150 
21:45	68.8	68.8	68.8	81	62.7	0	0	---	0.00	30.158 
21:50	68.4	68.4	68.4	82	62.7	0	0	---	0.00	30.158 
21:55	68.3	68.3	68.3	82	62.6	0	0	---	0.00	30.158 
22:00	68.1	68.1	68.1	83	62.7	0	1	112	0.00	30.159 
22:05	67.9	67.9	67.9	84	62.9	0	0	---	0.00	30.159 
22:10	67.8	67.8	67.8	85	63.1	0	1	112	0.00	30.159 
22:15	67.6	67.6	67.6	85	62.9	0	1	112	0.00	30.160 
22:20	67.4	67.4	67.4	86	63.1	0	1	112	0.00	30.160 
22:25	67.4	67.4	67.4	86	63.1	0	2	112	0.00	30.160 
22:30	67.4	67.4	67.4	86	63.1	0	1	112	0.00	30.163 
22:35	67.3	67.3	67.3	86	63.0	0	0	---	0.00	30.163 
22:40	67.1	67.1	67.1	86	62.8	0	0	---	0.00	30.163 
22:45	66.9	66.9	66.9	86	62.6	0	1	112	0.00	30.164 
22:50	66.9	66.9	66.9	87	62.9	0	1	112	0.00	30.164 
22:55	66.8	66.8	66.8	87	62.8	0	3	112	0.00	30.164 
23:00	66.8	66.8	66.8	87	62.8	0	1	112	0.00	30.163 
23:05	66.6	66.6	66.6	88	62.9	0	1	112	0.00	30.163 
23:10	66.4	66.4	66.4	88	62.7	0	0	---	0.00	30.163 
23:15	66.3	66.3	66.3	88	62.6	0	1	112	0.00	30.162 
23:20	66.3	66.3	66.3	88	62.6	0	2	112	0.00	30.162 
23:25	66.1	66.1	66.1	89	62.8	0	1	112	0.00	30.162 
23:30	66.0	66.0	66.0	89	62.7	0	0	---	0.00	30.163 
23:35	65.8	65.8	65.8	89	62.5	0	0	---	0.00	30.163 
23:40	65.6	65.6	65.6	89	62.3	0	0	---	0.00	30.163 
23:45	65.5	65.5	65.5	89	62.2	0	0	---	0.00	30.169 
23:50	65.3	65.3	65.3	89	62.0	0	0	---	0.00	30.169 
23:55	65.2	65.2	65.2	90	62.2	0	0	---	0.00	30.169 

CoCoRaHS
IN-AL-39
A2 Web Hosting
Creative Commons License
GoDaddy
search engine by freefind advanced

loaded 2018-11-17 06:16:53 • last modified 2010-11-18 10:43:29
Privacy PolicyDisclaimer
• wx.awcolley.com is powered by PmWiki v.2002016 •
• all content (unless otherwise noted) © 2018 A W Colley